TimeHST,TemperatureF,Dew PointF,Humidity,Sea Level PressureIn,VisibilityMPH,Wind Direction,Wind SpeedMPH,Gust SpeedMPH,PrecipitationIn,Events,Conditions,WindDirDegrees,DateUTC
12:53 AM,75.9,66.0,71,29.97,10.0,SE,8.1,-,N/A,,Clear,130,2013-07-13 10:53:00
1:53 AM,75.9,66.0,71,29.95,10.0,East,5.8,-,N/A,,Clear,80,2013-07-13 11:53:00
2:53 AM,75.0,63.0,66,29.94,10.0,ENE,4.6,-,N/A,,Clear,70,2013-07-13 12:53:00
3:53 AM,73.9,63.0,68,29.92,10.0,ESE,4.6,-,N/A,,Clear,110,2013-07-13 13:53:00
4:53 AM,73.9,64.0,71,29.92,10.0,ESE,6.9,-,N/A,,Clear,110,2013-07-13 14:53:00
5:53 AM,75.0,64.9,71,29.93,10.0,ESE,8.1,-,N/A,,Clear,110,2013-07-13 15:53:00
6:53 AM,77.0,64.9,66,29.95,10.0,SE,4.6,-,N/A,,Clear,130,2013-07-13 16:53:00
7:53 AM,80.1,66.9,64,29.97,10.0,SE,8.1,-,N/A,,Clear,130,2013-07-13 17:53:00
8:26 AM,80.6,68.0,65,29.97,10.0,South,8.1,-,N/A,,Mostly Cloudy,180,2013-07-13 18:26:00
8:43 AM,80.6,68.0,65,29.97,10.0,South,8.1,-,N/A,,Scattered Clouds,180,2013-07-13 18:43:00
8:53 AM,80.1,68.0,67,29.98,10.0,South,6.9,-,N/A,,Partly Cloudy,180,2013-07-13 18:53:00
9:53 AM,82.0,68.0,62,29.98,10.0,SSW,10.4,-,N/A,,Clear,210,2013-07-13 19:53:00
10:53 AM,82.9,68.0,60,29.97,10.0,WSW,10.4,-,N/A,,Clear,240,2013-07-13 20:53:00
11:53 AM,82.9,68.0,60,29.96,10.0,SW,11.5,-,N/A,,Overcast,230,2013-07-13 21:53:00
12:53 PM,84.0,68.0,58,29.96,10.0,WSW,11.5,-,N/A,,Mostly Cloudy,240,2013-07-13 22:53:00
1:53 PM,84.9,66.9,55,29.95,10.0,WSW,13.8,-,N/A,,Mostly Cloudy,240,2013-07-13 23:53:00
2:53 PM,84.0,66.9,56,29.94,10.0,SW,13.8,-,N/A,,Overcast,230,2013-07-14 00:53:00
3:53 PM,84.0,66.9,56,29.92,10.0,SW,12.7,-,N/A,,Scattered Clouds,230,2013-07-14 01:53:00
4:53 PM,82.0,66.0,58,29.92,10.0,SSW,11.5,-,N/A,,Mostly Cloudy,210,2013-07-14 02:53:00
5:53 PM,82.0,66.9,60,29.91,10.0,South,11.5,-,N/A,,Clear,190,2013-07-14 03:53:00
6:53 PM,81.0,66.9,62,29.92,10.0,SSW,10.4,-,N/A,,Mostly Cloudy,200,2013-07-14 04:53:00
7:53 PM,79.0,66.9,66,29.95,10.0,SE,9.2,-,N/A,,Scattered Clouds,130,2013-07-14 05:53:00
8:53 PM,78.1,66.9,68,29.96,10.0,East,4.6,-,N/A,,Partly Cloudy,100,2013-07-14 06:53:00
9:53 PM,78.1,66.9,68,29.96,10.0,East,6.9,-,N/A,,Mostly Cloudy,80,2013-07-14 07:53:00
10:53 PM,77.0,60.1,56,29.96,10.0,NNE,13.8,-,N/A,,Clear,30,2013-07-14 08:53:00
11:53 PM,75.9,59.0,56,29.95,10.0,NE,6.9,-,N/A,,Partly Cloudy,40,2013-07-14 09:53:00